Ir direto para menu de acessibilidade.
Página inicial > Dados Estação Meteorológica
Início do conteúdo da página

Dados Estação Meteorológica

Publicado: Sexta, 24 de Agosto de 2018, 14h18 | Última atualização em Quinta, 06 de Dezembro de 2018, 16h12 | Acessos: 290
ESTAÇÃO METEOROLÓGICA AUTOMÁTICA DO INSTITUTO FEDERAL DE SÃO PAULO - CAMPUS MATÃO
 
Coordenadas Geográficas: -21.624934, -48.347770
 
Os dados disponíveis neste site são dados brutos.
 
As observações na Estação Meteorológica não consideram o Horário de Verão.
 
Recomenda-se a citação da fonte em publicações nos quais os dados forem utilizados, conforme abaixo.
 
Projeto de Extensão: Mudanças climáticas e os impactos ambientais na sociedade
Edital 092/2018 MTO
 
Mês Setembro 2018
Tabela 1. Dados meteorológicos diários (Setembro 2018) observados na Estação Automática localizado no IFSP-Campus Matão.
  Pressão* Temperatura     Velocidade Direção Vento Radiação
Data   Máxima Mínima Umidade* Chuva Vento* Predominante Solar
  hPa °C °C % mm m/s   W/m2
01/09/2018 1010.6 34 20 41 0.0 1.0 NNE 34944
02/09/2018 1009.5 35 21 47 0.0 1.7 NNE 31014
03/09/2018 1012.6 21 13 88 0.8 1.0 WSW 9291
04/09/2018 1015.1 22 11 78 0.2 0.8 WSW 16697
05/09/2018 1018.1 24 12 64 0.0 1.8 E 38025
06/09/2018 1017.6 29 11 55 0.0 1.7 SE 36816
07/09/2018 1015.6 33 15 48 0.0 1.2 SE 37827
08/09/2018 1014.1 33 16 44 0.0 1.1 SSE 37498
09/09/2018 1013.5 32 17 44 0.0 1.1 SSE 36788
10/09/2018 1012.9 33 15 50 0.0 1.2 SE 36424
11/09/2018 1011.8 32 16 57 0.0 1.8 SSE 35301
12/09/2018 1011.9 33 16 57 0.0 1.8 SE 34487
13/09/2018 1009.7 34 18 56 0.0 1.6 E 34164
14/09/2018 1009.3 22 18 84 12.0 1.2 NE 5184
15/09/2018 1011.2 25 18 87 0.0 0.3 SE 14844
16/09/2018 1011.4 29 16 74 3.0 1.1 SSE 33107
17/09/2018 1011.8 21 16 91 11.6 1.0 N 7994
18/09/2018 1011.4 26 19 86 0.6 0.7 N 16907
19/09/2018 1011.5 32 19 72 0.0 0.7 NE 33137
20/09/2018 1013.5 24 17 89 22.4 2.0 NNE 11561
21/09/2018 1013.1 29 17 81 0.2 0.5 WSW 33828
22/09/2018 1011.1 32 19 60 0.0 0.9 SSE 40202
23/09/2018 1009.7 34 20 49 0.0 1.0 SSE 41126
24/09/2018 1008.9 37 22 45 0.0 1.2 SSE 40950
25/09/2018 1008.3 36 19 51 0.0 1.7 E 36719
26/09/2018 1008.4 35 22 60 2.2 1.6 NE 30381
27/09/2018 1008.5 32 22 75 0.2 1.7 S 19750
28/09/2018 1011.2 30 20 77 0.0 0.9 SE 22761
29/09/2018 1010.0 34 20 67 0.0 1.2 SE 36217
30/09/2018 1010.6 26 20 84 4.6 1.2 NNE 8422
 *Dados médios.
 
Fonte:
Série de Dados Meteorológicos do Campus Matão, SP
Instituto Federal de Educação, Ciência e Tecnologia de São Paulo (IFSP) - Câmpus Matão
 
Estação Meteorológica
Rua Stéfano D´avassi, 625 - Matão/SP - CEP 15991-502
Tel.: (16) 3506-0700 - e-mail: jmgberaldo@ifsp.edu.br
 
Mês Outubro 2018
 Tabela 2. Dados meteorológicos diários (Outubro 2018) observados na Estação Automática localizado no IFSP-Campus Matão.
  Pressão Temperatura       Velocidade Direção Vento Radiação
Dia   Máxima Mínima Umidade Chuva Vento Predominante Solar
  hPa °C °C % mm m/s   W/m2
01/10/2018 1011.2 31 20 76 0.4 0.7 NNE 29401
02/10/2018 1009.9 34 21 64 0.0 0.8 NNE 38036
03/10/2018 1009.1 35 22 64 2.0 1.5 NNE 33719
04/10/2018 1011.0 32 22 73 0.0 1.5 S 32936
05/10/2018 1011.6 32 19 70 0.0 2.5 SSE 36510
06/10/2018 1011.9 31 16 72 0.0 2.2 SSE 34821
07/10/2018 1011.8 27 20 79 1.0 1.5 NNE 15456
08/10/2018 1011.5 25 20 90 25.0 0.6 NE 11480
09/10/2018 1010.0 31 20 82 4.2 1.2 NE 34957
10/10/2018 1010.0 31 20 83 2.8 1.2 NNE 34540
11/10/2018 1012.1 28 21 82 0.0 1.6 SE 25141
12/10/2018 1011.3 34 19 70 0.0 1.1 ENE 37661
13/10/2018 1009.7 33 23 71 0.0 1.1 NNE 24726
14/10/2018 1009.5 31 22 76 0.4 1.2 SSE 31459
15/10/2018 1008.2 30 20 82 2.6 1.2 S 29360
16/10/2018 1007.5 33 21 71 0.0 0.6 NNE 33673
17/10/2018 1009.3 29 22 83 13.0 1.1 NNE 24387
18/10/2018 1008.8 34 20 77 36.0 1.7 NE 37261
19/10/2018 1009.1 30 20 83 0.4 1.7 SSE 35812
20/10/2018 1010.9 28 17 66 0.0 2.7 SE 44540
21/10/2018 1011.3 30 14 65 0.0 1.8 SSE 43015
22/10/2018 1011.0 32 17 64 0.0 1.0 NE 41121
23/10/2018 1009.7 33 21 62 0.0 1.1 NNE 40603
24/10/2018 1011.1 26 20 88 9.8 1.0 SSE 5888
25/10/2018 1011.2 24 20 93 7.8 0.6 NNE 12924
26/10/2018 1009.2 28 21 89 7.6 0.3 SW 21019
27/10/2018 1006.4 26 21 89 1.6 1.1 WNW 22852
28/10/2018 1008.7 28 18 74 0.2 1.3 SSE 37257
29/10/2018 1011.1 29 15 66 0.0 1.5 SSE 41039
30/10/2018 1011.5 33 18 66 0.0 1.0 E 44158
31/10/2018 1010.2 34 22 67 0.0 1.7 NNE 35695
 
 
Mês Novembro 2018
Tabela 3. Dados meteorológicos diários Novembro 2018) observados na Estação Automática localizado no IFSP-Campus Matão.
  Pressão Temperatura       Velocidade Direção Vento Radiação
Dia   Máxima Mínima Umidade Chuva Vento Predominante Solar
  hPa °C °C % mm m/s   W/m2
01/11/2018 1009.8 32 21 71 0.0 2.0 S 33541
02/11/2018 1008.4 33 21 74 5.4 0.7 NNE 32760
03/11/2018 1006.6 34 21 71 3.2 1.6 NE 42237
04/11/2018 1007.5 28 21 82 0.4 1.1 NNE 23957
05/11/2018 1010.1 28 18 76 0.0 1.9 E 21915
06/11/2018 1009.9 31 18 75 0.0 1.9 NE 38313
07/11/2018 1011.4 25 21 85 9.2 1.0 NNE 12364
08/11/2018 1014.0 23 18 88 8.0 1.9 E 12898
09/11/2018 1013.6 23 18 84 0.2 2.5 E 28737
10/11/2018 1009.7 29 19 85 30.8 1.6 NE 24977
11/11/2018 1008.6 31 20 78 0.0 1.0 NE 39401
12/11/2018 1008.5 33 21 69 0.0 1.0 NNE 39070
13/11/2018 1008.5 33 23 66 0.0 1.6 NE 44520
14/11/2018 1007.3 33 22 72 1.6 1.3 NNE 29114
15/11/2018 1007.1 33 21 76 0.0 0.8 NNE 41228
16/11/2018 1009.2 34 22 74 3.6 1.5 E 44847
17/11/2018 1010.7 31 21 74 0.8 1.8 NNE 32659
18/11/2018 1010.0 29 22 83 8.0 1.3 N 20631
19/11/2018 1010.4 26 19 90 7.0 1.5 N 16236
20/11/2018 1012.5 26 17 82 0.0 1.8 SSE 19194
21/11/2018 1012.3 26 18 81 0.0 1.3 E 25225
22/11/2018 1011.4 29 20 80 0.0 1.9 NE 31663
23/11/2018 1009.3 28 20 81 8.6 1.5 NNE 19859
24/11/2018 1008.8 26 20 89 6.2 2.0 NE 16760
25/11/2018 1009.8 29 20 86 18.4 0.9 NNE 28729
26/11/2018 1012.0 29 20 81 2.8 1.2 E 30932
27/11/2018 1012.3 31 17 70 0.0 1.5 E 44883
28/11/2018 1010.9 31 21 63 0.0 1.6 ENE 46088
29/11/2018 1008.8 33 21 60 0.0 0.9 NNE 44131
30/11/2018 1005.4 33 22 71 16.8 0.8 NNE 34945
 
 
Apoio: Logo GEAP IFSPRosa dos ventos
Fim do conteúdo da página